contact:dominique.lefevre@mio.osupytheas.fr, maurice.libes@osupytheas.fr, didier.mallarino@osupytheas.fr
Project:EMSO http://www.emso-fr.org/EMSO-France
Depth: 2436.0 m
Title:EMSO Ligure Ouest : Data MII capteur AQUADOPP
Date,Latitude,Longitude,X_East,Y_North,Z_Up,Amplitude_X,Amplitude_Y,Amplitude_Z,Batterie,SoundSpeed,Heading,Pitch,Roll,Pressure,TIS,Speed,Direction
, degrees North, degrees East, m.s-1, m.s-1,m.s-1, 1, 1, 1, Volt, m.s-1, degree, degree, degree, dbar, degree_C, m.s-1, degree
2020-11-07T00:04:03,42.805,6.029,-0.002,-0.009,0.009,101.0,104.0,99.0,13.4,1505.3,325.9,-0.7,1.8,2470.412,13.31,0.009,192.5
2020-11-07T00:07:03,42.805,6.029,-0.028,0.001,-0.023,99.0,105.0,99.0,13.3,1505.3,325.6,-0.7,1.8,2470.409,13.32,0.028,272.0
2020-11-07T00:10:03,42.805,6.029,-0.02,-0.001,-0.019,101.0,103.0,99.0,13.3,1505.3,324.9,-0.7,1.8,2470.421,13.32,0.02,267.1
2020-11-07T00:13:03,42.805,6.029,-0.01,-0.028,-0.017,102.0,107.0,98.0,13.4,1505.3,325.0,-0.7,1.8,2470.399,13.33,0.029,199.6
2020-11-07T00:16:03,42.805,6.029,-0.022,-0.015,-0.005,101.0,105.0,99.0,13.4,1505.3,324.7,-0.7,1.9,2470.411,13.33,0.026,235.7
2020-11-07T00:19:03,42.805,6.029,-0.015,-0.003,-0.01,101.0,106.0,99.0,13.4,1505.3,324.6,-0.7,1.8,2470.381,13.33,0.015,258.7
2020-11-07T00:22:03,42.805,6.029,0.007,0.0,-0.005,100.0,105.0,100.0,13.4,1505.3,326.1,-0.7,1.8,2470.404,13.33,0.007,90.0
2020-11-07T00:25:03,42.805,6.029,0.007,-0.003,-0.011,101.0,102.0,101.0,13.4,1505.3,326.7,-0.7,1.8,2470.375,13.33,0.007,113.2
2020-11-07T00:28:03,42.805,6.029,0.003,-0.023,0.007,100.0,104.0,100.0,13.4,1505.3,327.6,-0.7,1.8,2470.367,13.33,0.023,172.6
2020-11-07T00:31:03,42.805,6.029,0.024,-0.017,-0.011,100.0,104.0,100.0,13.4,1505.3,328.0,-0.7,1.9,2470.384,13.33,0.029,125.3
2020-11-07T00:34:03,42.805,6.029,0.026,-0.005,0.028,101.0,103.0,99.0,13.4,1505.3,328.0,-0.7,1.8,2470.362,13.33,0.026,100.9
2020-11-07T00:37:03,42.805,6.029,0.034,-0.011,0.0,100.0,103.0,100.0,13.4,1505.3,326.9,-0.7,1.8,2470.343,13.33,0.035,107.9
2020-11-07T00:40:03,42.805,6.029,0.015,-0.019,-0.003,102.0,105.0,99.0,13.4,1505.3,328.2,-0.7,1.8,2470.394,13.33,0.024,141.7
2020-11-07T00:43:03,42.805,6.029,0.005,-0.024,-0.027,102.0,105.0,99.0,13.3,1505.3,327.3,-0.7,1.8,2470.336,13.33,0.024,168.2
2020-11-07T00:46:03,42.805,6.029,0.025,0.005,0.028,102.0,105.0,99.0,13.4,1505.3,325.9,-0.7,1.8,2470.36,13.33,0.025,78.7
2020-11-07T00:49:03,42.805,6.029,-0.007,-0.019,0.032,101.0,105.0,99.0,13.4,1505.3,325.6,-0.7,1.8,2470.39,13.33,0.02,200.2
2020-11-07T00:52:03,42.805,6.029,0.01,-0.034,-0.035,100.0,105.0,100.0,13.4,1505.3,326.4,-0.7,1.8,2470.364,13.33,0.035,163.6
2020-11-07T00:55:03,42.805,6.029,0.004,-0.001,-0.008,101.0,105.0,99.0,13.4,1505.3,326.7,-0.7,1.8,2470.359,13.33,0.004,104.0
2020-11-07T00:58:03,42.805,6.029,-0.006,-0.027,-0.004,102.0,107.0,99.0,13.4,1505.3,327.5,-0.7,1.8,2470.37,13.33,0.027,192.5
2020-11-07T01:04:03,42.805,6.029,-0.029,-0.016,-0.006,102.0,106.0,100.0,13.4,1505.3,325.1,-0.7,1.8,2470.401,13.31,0.033,241.1
2020-11-07T01:10:03,42.805,6.029,0.003,-0.013,0.0,101.0,105.0,100.0,13.3,1505.2,326.4,-0.7,1.9,2470.449,13.3,0.013,167.0
2020-11-07T01:13:03,42.805,6.029,0.005,-0.01,0.021,101.0,105.0,99.0,13.3,1505.3,323.7,-0.7,1.8,2470.452,13.31,0.011,153.4
2020-11-07T01:16:03,42.805,6.029,0.013,-0.009,0.006,101.0,104.0,100.0,13.4,1505.3,327.3,-0.7,1.8,2470.429,13.32,0.015,124.7
2020-11-07T01:19:03,42.805,6.029,0.01,0.021,0.041,103.0,104.0,98.0,13.4,1505.3,323.8,-0.7,1.9,2470.394,13.32,0.023,25.5
2020-11-07T01:22:03,42.805,6.029,0.029,-0.005,0.012,102.0,106.0,99.0,13.3,1505.3,326.2,-0.7,1.8,2470.395,13.32,0.029,99.8
2020-11-07T01:25:03,42.805,6.029,0.019,-0.016,0.0,101.0,106.0,98.0,13.3,1505.3,325.8,-0.7,1.8,2470.423,13.32,0.024,130.1
2020-11-07T01:28:03,42.805,6.029,0.049,-0.013,0.032,101.0,103.0,101.0,13.4,1505.3,326.7,-0.7,1.8,2470.369,13.33,0.05,104.9
2020-11-07T01:31:03,42.805,6.029,0.041,-0.004,0.046,101.0,104.0,100.0,13.4,1505.3,327.4,-0.7,1.8,2470.392,13.33,0.041,95.6
2020-11-07T01:34:03,42.805,6.029,0.037,0.008,0.047,101.0,104.0,100.0,13.3,1505.3,324.8,-0.7,1.8,2470.37,13.33,0.037,77.8
2020-11-07T01:37:03,42.805,6.029,0.0,-0.012,0.013,100.0,104.0,101.0,13.3,1505.3,324.6,-0.7,1.8,2470.368,13.33,0.012,180.0
2020-11-07T01:40:03,42.805,6.029,0.069,-0.015,0.051,102.0,104.0,100.0,13.4,1505.3,324.2,-0.7,1.9,2470.314,13.33,0.07,102.3
2020-11-07T01:43:03,42.805,6.029,0.054,-0.021,0.026,102.0,104.0,99.0,13.4,1505.3,324.0,-0.8,1.8,2470.337,13.33,0.057,111.2
2020-11-07T01:46:03,42.805,6.029,0.059,-0.022,0.051,100.0,105.0,99.0,13.4,1505.3,324.4,-0.7,1.8,2470.336,13.33,0.062,110.4
2020-11-07T01:49:03,42.805,6.029,0.032,-0.031,0.021,101.0,103.0,99.0,13.4,1505.3,328.6,-0.7,1.8,2470.337,13.33,0.044,134.1
2020-11-07T01:52:03,42.805,6.029,0.042,0.004,0.033,101.0,104.0,98.0,13.4,1505.3,328.4,-0.7,1.8,2470.331,13.33,0.042,84.6
2020-11-07T01:55:03,42.805,6.029,0.043,-0.022,0.027,99.0,103.0,101.0,13.4,1505.3,327.5,-0.7,1.9,2470.329,13.33,0.048,117.1
2020-11-07T01:58:03,42.805,6.029,0.032,-0.025,0.003,102.0,102.0,99.0,13.4,1505.3,325.7,-0.7,1.9,2470.307,13.33,0.04,128.0
2020-11-07T02:04:03,42.805,6.029,0.023,-0.012,0.004,102.0,105.0,98.0,13.4,1505.3,325.1,-0.7,1.8,2470.345,13.31,0.025,117.6
2020-11-07T02:07:03,42.805,6.029,-0.017,-0.018,-0.051,101.0,105.0,99.0,13.4,1505.3,327.4,-0.7,1.9,2470.435,13.31,0.024,223.4
2020-11-07T02:10:03,42.805,6.029,0.002,0.009,-0.004,102.0,103.0,99.0,13.3,1505.3,327.6,-0.7,1.8,2470.387,13.32,0.009,12.5
2020-11-07T02:13:03,42.805,6.029,0.001,-0.024,-0.058,101.0,105.0,100.0,13.4,1505.3,327.6,-0.7,1.8,2470.344,13.32,0.024,177.6
2020-11-07T02:16:03,42.805,6.029,0.024,-0.018,0.003,101.0,104.0,99.0,13.4,1505.3,325.7,-0.7,1.8,2470.327,13.32,0.03,126.9
2020-11-07T02:19:03,42.805,6.029,0.01,-0.017,-0.004,100.0,107.0,98.0,13.4,1505.3,324.5,-0.7,1.8,2470.341,13.32,0.019,149.5
2020-11-07T02:22:03,42.805,6.029,0.054,-0.022,0.045,102.0,105.0,99.0,13.4,1505.3,326.7,-0.7,1.8,2470.337,13.32,0.058,112.2
2020-11-07T02:25:03,42.805,6.029,0.023,-0.02,-0.021,102.0,105.0,99.0,13.3,1505.3,323.5,-0.7,1.8,2470.342,13.32,0.03,131.0
2020-11-07T02:28:03,42.805,6.029,0.051,-0.022,0.006,102.0,106.0,99.0,13.3,1505.3,328.3,-0.7,1.8,2470.343,13.32,0.055,113.3
2020-11-07T02:31:03,42.805,6.029,0.022,-0.039,-0.018,99.0,105.0,99.0,13.4,1505.3,325.0,-0.7,1.8,2470.31,13.32,0.044,150.6
2020-11-07T02:34:03,42.805,6.029,0.06,-0.004,0.005,100.0,104.0,99.0,13.4,1505.3,325.0,-0.7,1.8,2470.341,13.32,0.06,93.8
2020-11-07T02:37:03,42.805,6.029,0.037,-0.013,0.009,101.0,106.0,98.0,13.4,1505.3,324.7,-0.7,1.8,2470.353,13.32,0.039,109.4
2020-11-07T02:40:03,42.805,6.029,0.045,-0.028,-0.012,100.0,104.0,99.0,13.4,1505.3,327.0,-0.7,1.8,2470.345,13.32,0.053,121.9
2020-11-07T02:43:03,42.805,6.029,-0.003,-0.035,-0.045,99.0,104.0,100.0,13.4,1505.3,326.7,-0.7,1.8,2470.335,13.32,0.035,184.9
2020-11-07T02:46:03,42.805,6.029,0.036,0.0,-0.006,102.0,104.0,99.0,13.4,1505.3,322.6,-0.7,1.8,2470.315,13.32,0.036,90.0
2020-11-07T02:49:03,42.805,6.029,0.024,-0.026,0.0,102.0,105.0,99.0,13.4,1505.3,324.0,-0.7,1.8,2470.353,13.32,0.035,137.3
2020-11-07T02:52:03,42.805,6.029,0.029,-0.009,-0.021,100.0,104.0,99.0,13.3,1505.3,326.1,-0.7,1.9,2470.301,13.32,0.03,107.2
2020-11-07T02:55:03,42.805,6.029,0.02,-0.011,0.0,102.0,104.0,99.0,13.3,1505.3,327.1,-0.7,1.8,2470.337,13.32,0.022,118.8
2020-11-07T02:58:03,42.805,6.029,0.019,-0.013,-0.039,102.0,104.0,98.0,13.4,1505.3,326.3,-0.7,1.8,2470.351,13.32,0.023,124.4
2020-11-07T03:04:03,42.805,6.029,0.048,-0.017,0.035,100.0,104.0,99.0,13.4,1505.2,324.5,-0.7,1.8,2470.373,13.3,0.05,109.5
2020-11-07T03:07:03,42.805,6.029,0.029,-0.021,-0.006,101.0,104.0,98.0,13.4,1505.3,323.8,-0.7,1.8,2470.387,13.31,0.035,125.9
2020-11-07T03:10:03,42.805,6.029,0.035,-0.007,0.018,100.0,105.0,99.0,13.3,1505.3,325.7,-0.8,1.9,2470.371,13.31,0.035,101.3
2020-11-07T03:13:03,42.805,6.029,0.018,-0.017,-0.01,100.0,104.0,99.0,13.4,1505.3,327.3,-0.7,1.8,2470.364,13.32,0.024,133.4
2020-11-07T03:16:03,42.805,6.029,0.055,-0.007,0.021,101.0,104.0,99.0,13.4,1505.3,327.8,-0.7,1.9,2470.345,13.32,0.055,97.3
2020-11-07T03:19:03,42.805,6.029,0.053,-0.033,-0.024,99.0,105.0,99.0,13.4,1505.3,327.9,-0.7,1.8,2470.371,13.32,0.062,121.9
2020-11-07T03:22:03,42.805,6.029,0.045,-0.025,0.009,101.0,103.0,99.0,13.4,1505.3,327.0,-0.7,1.9,2470.316,13.32,0.051,119.1
2020-11-07T03:25:03,42.805,6.029,0.018,-0.005,-0.014,101.0,105.0,98.0,13.4,1505.3,324.6,-0.7,1.8,2470.363,13.32,0.018,105.5
2020-11-07T03:28:03,42.805,6.029,0.029,-0.003,0.021,100.0,105.0,98.0,13.4,1505.3,326.4,-0.7,1.8,2470.329,13.32,0.029,95.9
2020-11-07T03:31:03,42.805,6.029,0.038,-0.001,0.03,101.0,103.0,100.0,13.4,1505.3,326.7,-0.7,1.8,2470.327,13.32,0.038,91.5
2020-11-07T03:34:03,42.805,6.029,0.035,-0.012,-0.001,98.0,104.0,99.0,13.4,1505.3,324.2,-0.7,1.8,2470.349,13.32,0.037,108.9
2020-11-07T03:37:03,42.805,6.029,0.034,-0.037,-0.016,101.0,106.0,98.0,13.4,1505.3,326.6,-0.7,1.8,2470.336,13.32,0.05,137.4
2020-11-07T03:40:03,42.805,6.029,0.049,-0.005,0.03,100.0,105.0,100.0,13.3,1505.3,324.3,-0.7,1.8,2470.348,13.32,0.049,95.8
2020-11-07T03:43:03,42.805,6.029,0.036,-0.021,-0.004,100.0,104.0,101.0,13.4,1505.3,324.8,-0.7,1.8,2470.332,13.32,0.041,120.3
2020-11-07T03:46:03,42.805,6.029,0.049,-0.033,-0.023,101.0,103.0,98.0,13.3,1505.3,324.5,-0.7,1.8,2470.336,13.32,0.059,124.0
2020-11-07T03:49:03,42.805,6.029,0.05,-0.015,0.001,99.0,104.0,100.0,13.4,1505.3,323.3,-0.7,1.8,2470.36,13.32,0.052,106.7
2020-11-07T03:52:03,42.805,6.029,0.056,-0.034,-0.02,102.0,104.0,97.0,13.3,1505.3,325.9,-0.7,1.8,2470.321,13.32,0.065,121.3
2020-11-07T03:55:03,42.805,6.029,0.045,-0.027,0.009,101.0,104.0,100.0,13.4,1505.3,326.3,-0.7,1.8,2470.362,13.32,0.052,121.0
2020-11-07T03:58:03,42.805,6.029,0.022,-0.018,-0.03,100.0,104.0,99.0,13.4,1505.3,326.4,-0.7,1.8,2470.316,13.32,0.028,129.3
2020-11-07T04:04:03,42.805,6.029,0.034,-0.027,-0.014,101.0,104.0,99.0,13.4,1505.2,324.8,-0.8,1.8,2470.388,13.3,0.043,128.5
2020-11-07T04:07:03,42.805,6.029,0.029,-0.013,-0.013,101.0,104.0,99.0,13.4,1505.3,323.0,-0.7,1.8,2470.4,13.31,0.031,114.1
2020-11-07T04:10:03,42.805,6.029,0.048,-0.022,0.013,101.0,104.0,99.0,13.4,1505.3,326.7,-0.7,1.8,2470.361,13.31,0.052,114.6
2020-11-07T04:13:03,42.805,6.029,0.035,-0.044,-0.03,100.0,104.0,99.0,13.3,1505.3,327.0,-0.7,1.8,2470.389,13.32,0.056,141.5
2020-11-07T04:16:03,42.805,6.029,0.004,-0.031,-0.034,100.0,105.0,98.0,13.4,1505.3,326.8,-0.7,1.8,2470.377,13.32,0.031,172.7
2020-11-07T04:19:03,42.805,6.029,0.03,-0.036,0.001,100.0,104.0,99.0,13.4,1505.3,323.5,-0.7,1.8,2470.355,13.32,0.046,140.2
2020-11-07T04:22:03,42.805,6.029,0.038,-0.029,-0.004,100.0,105.0,98.0,13.4,1505.3,327.8,-0.7,1.8,2470.394,13.32,0.047,127.3
2020-11-07T04:25:03,42.805,6.029,0.027,-0.019,0.027,101.0,103.0,99.0,13.4,1505.3,327.5,-0.7,1.8,2470.335,13.32,0.033,125.1
2020-11-07T04:28:03,42.805,6.029,0.047,-0.004,-0.006,101.0,105.0,98.0,13.4,1505.3,325.6,-0.7,1.8,2470.339,13.32,0.047,94.9
2020-11-07T04:31:03,42.805,6.029,0.05,-0.016,-0.013,100.0,103.0,100.0,13.4,1505.3,326.8,-0.7,1.8,2470.325,13.32,0.052,107.7
2020-11-07T04:34:03,42.805,6.029,0.071,-0.04,0.017,100.0,104.0,100.0,13.4,1505.3,327.6,-0.7,1.8,2470.342,13.32,0.081,119.4
2020-11-07T04:37:03,42.805,6.029,0.034,-0.018,0.0,102.0,103.0,98.0,13.4,1505.3,327.0,-0.7,1.8,2470.31,13.32,0.038,117.9
2020-11-07T04:40:03,42.805,6.029,0.035,-0.025,-0.002,101.0,104.0,99.0,13.4,1505.3,324.8,-0.7,1.8,2470.356,13.32,0.043,125.5
2020-11-07T04:43:03,42.805,6.029,0.026,-0.015,0.021,101.0,102.0,100.0,13.3,1505.3,328.3,-0.7,1.8,2470.329,13.32,0.03,120.0
2020-11-07T04:46:03,42.805,6.029,0.044,-0.023,-0.016,101.0,104.0,99.0,13.3,1505.3,325.9,-0.7,1.9,2470.345,13.32,0.049,117.6
2020-11-07T04:49:03,42.805,6.029,0.026,-0.017,-0.001,100.0,105.0,99.0,13.4,1505.3,325.7,-0.7,1.8,2470.319,13.32,0.031,123.2
2020-11-07T04:52:03,42.805,6.029,0.057,-0.036,-0.027,102.0,104.0,98.0,13.4,1505.3,324.3,-0.7,1.8,2470.328,13.32,0.067,122.3
2020-11-07T04:55:03,42.805,6.029,0.014,-0.017,-0.015,101.0,104.0,100.0,13.4,1505.3,323.9,-0.7,1.8,2470.349,13.32,0.022,140.5
2020-11-07T04:58:03,42.805,6.029,0.01,-0.015,-0.028,101.0,104.0,99.0,13.4,1505.3,326.3,-0.7,1.8,2470.349,13.32,0.018,146.3
2020-11-07T05:04:03,42.805,6.029,0.059,-0.024,0.012,100.0,104.0,100.0,13.4,1505.2,323.4,-0.8,1.8,2470.373,13.3,0.063,112.1
2020-11-07T05:07:03,42.805,6.029,0.042,-0.035,0.002,100.0,105.0,100.0,13.4,1505.3,324.7,-0.7,1.8,2470.438,13.31,0.054,129.8
2020-11-07T05:10:03,42.805,6.029,0.032,-0.018,0.0,101.0,104.0,100.0,13.4,1505.3,322.7,-0.7,1.8,2470.36,13.31,0.036,119.4
2020-11-07T05:13:03,42.805,6.029,0.053,-0.018,0.006,101.0,104.0,100.0,13.4,1505.3,326.5,-0.7,1.8,2470.377,13.32,0.055,108.8
2020-11-07T05:16:03,42.805,6.029,0.031,-0.026,-0.01,100.0,105.0,99.0,13.3,1505.3,327.1,-0.7,1.8,2470.396,13.32,0.04,130.0
2020-11-07T05:19:03,42.805,6.029,0.057,-0.013,0.026,100.0,103.0,100.0,13.4,1505.3,328.1,-0.7,1.8,2470.327,13.32,0.058,102.8
2020-11-07T05:22:03,42.805,6.029,0.048,-0.017,-0.032,101.0,103.0,99.0,13.3,1505.3,325.5,-0.7,1.8,2470.356,13.32,0.05,109.5
2020-11-07T05:25:03,42.805,6.029,0.029,-0.02,-0.008,100.0,105.0,99.0,13.4,1505.3,323.8,-0.7,1.9,2470.406,13.32,0.035,124.6
2020-11-07T05:28:03,42.805,6.029,0.05,-0.028,0.022,101.0,104.0,100.0,13.4,1505.3,326.4,-0.7,1.8,2470.354,13.32,0.057,119.3
2020-11-07T05:31:03,42.805,6.029,0.023,-0.026,-0.01,100.0,104.0,101.0,13.3,1505.3,325.7,-0.7,1.8,2470.327,13.32,0.034,138.5
2020-11-07T05:34:03,42.805,6.029,0.053,-0.03,0.062,101.0,103.0,101.0,13.3,1505.3,326.5,-0.7,1.8,2470.334,13.32,0.06,119.5
2020-11-07T05:37:03,42.805,6.029,0.049,-0.011,0.015,102.0,105.0,99.0,13.4,1505.3,325.9,-0.7,1.8,2470.353,13.32,0.05,102.7
2020-11-07T05:40:03,42.805,6.029,0.037,-0.021,-0.008,102.0,104.0,99.0,13.4,1505.3,326.7,-0.7,1.8,2470.314,13.32,0.042,119.6
2020-11-07T05:43:03,42.805,6.029,0.043,-0.028,-0.014,101.0,104.0,99.0,13.3,1505.3,326.1,-0.7,1.8,2470.326,13.32,0.051,123.1
2020-11-07T05:46:03,42.805,6.029,0.036,-0.026,0.013,100.0,104.0,100.0,13.4,1505.3,326.1,-0.7,1.8,2470.343,13.32,0.044,125.8
2020-11-07T05:49:03,42.805,6.029,0.034,-0.025,-0.02,103.0,103.0,101.0,13.4,1505.3,326.9,-0.7,1.8,2470.361,13.32,0.042,126.3
2020-11-07T05:52:03,42.805,6.029,0.058,-0.014,0.036,101.0,103.0,100.0,13.4,1505.3,326.7,-0.7,1.8,2470.321,13.32,0.059,103.6
2020-11-07T05:55:03,42.805,6.029,0.069,-0.04,-0.017,102.0,103.0,100.0,13.4,1505.3,327.0,-0.7,1.9,2470.338,13.32,0.079,120.1
2020-11-07T05:58:03,42.805,6.029,0.031,-0.02,-0.017,100.0,104.0,99.0,13.3,1505.3,324.9,-0.7,1.8,2470.373,13.32,0.036,122.8
2020-11-07T06:04:03,42.805,6.029,0.026,-0.035,0.025,101.0,103.0,100.0,13.3,1505.2,327.1,-0.7,1.8,2470.356,13.3,0.043,143.4
2020-11-07T06:07:03,42.805,6.029,0.025,-0.033,0.018,101.0,103.0,99.0,13.3,1505.3,326.8,-0.7,1.9,2470.399,13.31,0.041,142.8
2020-11-07T06:10:03,42.805,6.029,0.048,-0.026,0.019,101.0,103.0,99.0,13.4,1505.3,324.4,-0.7,1.8,2470.4,13.31,0.054,118.4
2020-11-07T06:16:03,42.805,6.029,0.034,-0.054,-0.027,101.0,104.0,99.0,13.4,1505.2,324.2,-0.7,1.8,2470.459,13.3,0.063,147.8
2020-11-07T06:19:03,42.805,6.029,0.064,-0.051,0.006,101.0,102.0,100.0,13.3,1505.3,324.9,-0.7,1.8,2470.404,13.31,0.081,128.6
2020-11-07T06:22:03,42.805,6.029,0.057,-0.03,0.021,100.0,105.0,100.0,13.3,1505.3,322.8,-0.7,1.8,2470.427,13.31,0.064,117.8
2020-11-07T06:25:03,42.805,6.029,0.027,-0.033,0.005,101.0,103.0,99.0,13.4,1505.3,324.5,-0.7,1.8,2470.349,13.32,0.042,140.7
2020-11-07T06:28:03,42.805,6.029,0.03,-0.02,0.0,101.0,103.0,100.0,13.4,1505.3,325.4,-0.7,1.8,2470.412,13.32,0.036,123.7
2020-11-07T06:31:03,42.805,6.029,0.025,-0.028,0.005,101.0,103.0,100.0,13.3,1505.3,324.2,-0.7,1.8,2470.384,13.32,0.037,138.2
2020-11-07T06:34:03,42.805,6.029,0.019,-0.045,-0.01,101.0,103.0,99.0,13.4,1505.3,324.5,-0.7,1.9,2470.363,13.32,0.048,157.1
2020-11-07T06:37:03,42.805,6.029,0.041,-0.032,0.018,100.0,103.0,100.0,13.4,1505.3,324.6,-0.7,1.8,2470.343,13.32,0.052,128.0
2020-11-07T06:40:03,42.805,6.029,0.057,-0.037,0.025,101.0,103.0,99.0,13.4,1505.3,325.7,-0.7,1.8,2470.402,13.32,0.067,123.0
2020-11-07T06:43:03,42.805,6.029,0.027,-0.037,-0.022,101.0,104.0,100.0,13.4,1505.3,326.4,-0.7,1.8,2470.381,13.32,0.045,143.9
2020-11-07T06:46:03,42.805,6.029,0.039,-0.027,0.005,101.0,104.0,98.0,13.4,1505.3,323.7,-0.7,1.8,2470.376,13.32,0.047,124.7
2020-11-07T06:49:03,42.805,6.029,0.031,-0.03,-0.002,100.0,103.0,98.0,13.3,1505.3,327.1,-0.7,1.8,2470.384,13.32,0.043,134.1
2020-11-07T06:52:03,42.805,6.029,0.018,-0.049,-0.018,101.0,103.0,100.0,13.3,1505.3,324.1,-0.7,1.8,2470.354,13.32,0.052,159.8
2020-11-07T06:55:03,42.805,6.029,0.031,-0.04,0.002,101.0,102.0,100.0,13.4,1505.3,325.4,-0.7,1.8,2470.362,13.32,0.05,142.2
2020-11-07T06:58:03,42.805,6.029,0.042,-0.066,-0.026,100.0,103.0,99.0,13.4,1505.3,328.1,-0.7,1.8,2470.381,13.32,0.078,147.5
2020-11-07T07:01:03,42.805,6.029,0.035,-0.032,-0.019,101.0,102.0,99.0,13.4,1505.3,326.0,-0.7,1.8,2470.38,13.32,0.047,132.4
2020-11-07T07:04:03,42.805,6.029,0.03,-0.05,0.014,101.0,103.0,99.0,13.3,1505.3,327.2,-0.7,1.8,2470.406,13.32,0.058,149.0
2020-11-07T07:07:03,42.805,6.029,0.032,-0.046,-0.005,100.0,103.0,99.0,13.3,1505.3,328.0,-0.7,1.9,2470.377,13.32,0.056,145.2
2020-11-07T07:10:03,42.805,6.029,0.035,-0.048,-0.013,103.0,102.0,99.0,13.4,1505.3,323.2,-0.7,1.8,2470.39,13.32,0.059,143.9
2020-11-07T07:13:03,42.805,6.029,0.06,-0.039,0.019,99.0,104.0,99.0,13.4,1505.3,324.9,-0.7,1.8,2470.372,13.32,0.071,123.0
2020-11-07T07:16:03,42.805,6.029,0.056,-0.027,0.013,101.0,103.0,99.0,13.4,1505.3,323.2,-0.7,1.8,2470.373,13.32,0.062,115.7
2020-11-07T07:19:03,42.805,6.029,0.008,-0.026,-0.026,101.0,102.0,99.0,13.4,1505.3,324.6,-0.7,1.8,2470.409,13.32,0.027,162.9
2020-11-07T07:22:03,42.805,6.029,0.055,-0.031,0.009,103.0,102.0,99.0,13.3,1505.3,324.7,-0.7,1.9,2470.389,13.32,0.063,119.4
2020-11-07T07:25:03,42.805,6.029,0.034,-0.018,0.002,100.0,103.0,99.0,13.4,1505.3,325.4,-0.7,1.9,2470.383,13.32,0.038,117.9
2020-11-07T07:28:03,42.805,6.029,0.025,-0.031,-0.029,102.0,103.0,99.0,13.4,1505.3,324.2,-0.7,1.8,2470.356,13.32,0.039,141.1
2020-11-07T07:31:03,42.805,6.029,0.051,-0.037,0.0,101.0,103.0,99.0,13.4,1505.3,325.2,-0.7,1.8,2470.406,13.32,0.063,126.0
2020-11-07T07:34:03,42.805,6.029,0.02,-0.026,-0.017,102.0,101.0,100.0,13.3,1505.3,326.0,-0.7,1.8,2470.379,13.32,0.032,142.4
2020-11-07T07:37:03,42.805,6.029,0.056,-0.039,-0.001,100.0,102.0,100.0,13.4,1505.3,323.6,-0.7,1.8,2470.383,13.32,0.068,124.9
2020-11-07T07:40:03,42.805,6.029,0.032,-0.056,-0.033,101.0,103.0,100.0,13.4,1505.3,325.9,-0.7,1.8,2470.402,13.32,0.064,150.3
2020-11-07T07:43:03,42.805,6.029,0.047,-0.032,0.003,99.0,102.0,101.0,13.4,1505.3,324.7,-0.7,1.8,2470.376,13.32,0.056,124.2
2020-11-07T07:46:03,42.805,6.029,0.021,-0.023,-0.021,101.0,104.0,99.0,13.4,1505.3,324.7,-0.7,1.8,2470.412,13.32,0.031,137.6
2020-11-07T07:49:03,42.805,6.029,0.03,-0.034,-0.012,100.0,103.0,100.0,13.4,1505.3,324.5,-0.7,1.9,2470.421,13.32,0.045,138.6
2020-11-07T07:52:03,42.805,6.029,0.028,-0.052,-0.012,101.0,102.0,99.0,13.4,1505.3,325.7,-0.7,1.8,2470.4,13.32,0.059,151.7
2020-11-07T07:55:03,42.805,6.029,0.0,-0.031,-0.029,100.0,103.0,100.0,13.3,1505.3,326.7,-0.7,1.9,2470.416,13.32,0.03,180.0
2020-11-07T07:58:03,42.805,6.029,0.058,-0.05,-0.003,101.0,103.0,100.0,13.4,1505.3,326.9,-0.7,1.8,2470.395,13.32,0.076,130.8
2020-11-07T08:04:03,42.805,6.029,0.033,-0.031,0.015,100.0,102.0,99.0,13.3,1505.2,323.0,-0.7,1.8,2470.446,13.3,0.045,133.2
2020-11-07T08:07:03,42.805,6.029,0.016,-0.038,-0.014,100.0,104.0,99.0,13.4,1505.3,327.0,-0.7,1.8,2470.527,13.31,0.041,157.2
2020-11-07T08:10:03,42.805,6.029,0.02,-0.028,0.0,101.0,102.0,99.0,13.4,1505.3,324.4,-0.7,1.8,2470.479,13.31,0.034,144.5
2020-11-07T08:13:03,42.805,6.029,0.012,0.003,0.007,101.0,103.0,98.0,13.3,1505.3,326.5,-0.7,1.8,2470.443,13.32,0.012,76.0
2020-11-07T08:16:03,42.805,6.029,0.048,-0.037,-0.02,100.0,102.0,100.0,13.4,1505.3,328.0,-0.7,1.8,2470.469,13.32,0.06,127.6
2020-11-07T08:19:03,42.805,6.029,0.017,-0.018,-0.004,101.0,103.0,99.0,13.4,1505.3,323.7,-0.7,1.8,2470.423,13.32,0.024,136.6
2020-11-07T08:22:03,42.805,6.029,0.017,-0.03,0.008,101.0,103.0,99.0,13.4,1505.3,326.5,-0.7,1.8,2470.451,13.32,0.034,150.5
2020-11-07T08:25:03,42.805,6.029,0.035,-0.029,0.008,102.0,102.0,99.0,13.4,1505.3,327.2,-0.7,1.8,2470.418,13.32,0.045,129.6
2020-11-07T08:28:03,42.805,6.029,0.035,-0.033,0.0,102.0,103.0,98.0,13.4,1505.3,322.9,-0.7,1.8,2470.442,13.32,0.048,133.3
2020-11-07T08:31:03,42.805,6.029,0.072,-0.03,0.008,101.0,101.0,99.0,13.4,1505.3,324.1,-0.7,1.8,2470.464,13.32,0.077,112.6
2020-11-07T08:34:03,42.805,6.029,0.048,-0.019,-0.011,100.0,103.0,99.0,13.4,1505.3,324.4,-0.7,1.8,2470.485,13.32,0.051,111.6
2020-11-07T08:37:03,42.805,6.029,0.038,-0.031,0.022,101.0,103.0,100.0,13.3,1505.3,327.3,-0.7,1.8,2470.441,13.32,0.049,129.2
2020-11-07T08:40:03,42.805,6.029,0.041,-0.065,-0.013,102.0,104.0,98.0,13.4,1505.3,326.8,-0.7,1.8,2470.458,13.32,0.076,147.8
2020-11-07T08:43:03,42.805,6.029,0.032,-0.027,-0.014,101.0,102.0,101.0,13.4,1505.3,324.5,-0.7,1.8,2470.449,13.32,0.041,130.2
2020-11-07T08:46:03,42.805,6.029,0.058,-0.047,-0.013,99.0,103.0,101.0,13.4,1505.3,326.9,-0.7,1.9,2470.491,13.32,0.074,129.0
2020-11-07T08:49:03,42.805,6.029,0.047,-0.046,-0.024,102.0,102.0,99.0,13.4,1505.3,323.5,-0.7,1.8,2470.433,13.32,0.065,134.4
2020-11-07T08:52:03,42.805,6.029,0.036,-0.047,-0.007,101.0,103.0,102.0,13.4,1505.3,324.4,-0.7,1.8,2470.464,13.32,0.059,142.5
2020-11-07T08:55:03,42.805,6.029,0.035,-0.065,-0.037,103.0,102.0,99.0,13.3,1505.3,324.5,-0.7,1.8,2470.457,13.32,0.073,151.7
2020-11-07T08:58:03,42.805,6.029,0.032,-0.025,-0.003,101.0,103.0,99.0,13.4,1505.3,324.7,-0.7,1.8,2470.462,13.32,0.04,128.0
2020-11-07T09:04:03,42.805,6.029,0.028,-0.033,-0.01,102.0,103.0,99.0,13.3,1505.2,328.4,-0.7,1.8,2470.465,13.3,0.043,139.7
2020-11-07T09:07:03,42.805,6.029,0.054,-0.053,0.017,101.0,103.0,100.0,13.4,1505.3,325.1,-0.7,1.8,2470.525,13.31,0.075,134.5
2020-11-07T09:10:03,42.805,6.029,0.043,-0.032,0.001,102.0,103.0,100.0,13.4,1505.3,322.9,-0.7,1.8,2470.519,13.31,0.053,126.7
2020-11-07T09:13:03,42.805,6.029,0.02,-0.05,-0.011,102.0,103.0,99.0,13.3,1505.3,324.9,-0.7,1.8,2470.52,13.32,0.053,158.2
2020-11-07T09:16:03,42.805,6.029,0.041,-0.051,-0.023,101.0,104.0,99.0,13.3,1505.3,324.7,-0.7,1.8,2470.501,13.32,0.065,141.2
2020-11-07T09:19:03,42.805,6.029,0.057,-0.047,0.0,102.0,103.0,98.0,13.4,1505.3,324.5,-0.7,1.8,2470.464,13.32,0.073,129.5
2020-11-07T09:22:03,42.805,6.029,0.022,-0.04,-0.034,101.0,103.0,99.0,13.3,1505.3,326.5,-0.7,1.9,2470.49,13.32,0.045,151.2
2020-11-07T09:25:03,42.805,6.029,0.037,-0.019,0.007,102.0,103.0,99.0,13.3,1505.3,326.9,-0.7,1.9,2470.509,13.32,0.041,117.2
2020-11-07T09:28:03,42.805,6.029,0.003,-0.025,-0.021,102.0,102.0,101.0,13.4,1505.3,326.9,-0.7,1.9,2470.44,13.32,0.025,173.2
2020-11-07T09:31:03,42.805,6.029,0.028,-0.037,-0.004,101.0,103.0,100.0,13.4,1505.3,324.0,-0.7,1.8,2470.45,13.32,0.046,142.9
2020-11-07T09:34:03,42.805,6.029,0.028,-0.04,-0.03,101.0,103.0,98.0,13.3,1505.3,323.6,-0.7,1.8,2470.543,13.32,0.048,145.0
2020-11-07T09:37:03,42.805,6.029,0.036,-0.019,0.009,100.0,104.0,100.0,13.3,1505.3,324.0,-0.7,1.8,2470.499,13.32,0.04,117.8
2020-11-07T09:40:03,42.805,6.029,0.008,-0.056,-0.024,102.0,102.0,99.0,13.4,1505.3,324.0,-0.7,1.8,2470.509,13.32,0.056,171.9
2020-11-07T09:43:03,42.805,6.029,0.034,-0.028,0.01,101.0,103.0,99.0,13.3,1505.3,324.4,-0.7,1.8,2470.509,13.32,0.044,129.5
2020-11-07T09:46:03,42.805,6.029,0.03,-0.039,-0.012,101.0,104.0,99.0,13.3,1505.3,326.3,-0.7,1.8,2470.506,13.32,0.049,142.4
2020-11-07T09:49:03,42.805,6.029,0.036,-0.032,0.002,103.0,102.0,99.0,13.3,1505.3,324.7,-0.7,1.8,2470.486,13.32,0.048,131.6
2020-11-07T09:52:03,42.805,6.029,0.033,-0.029,0.007,101.0,104.0,99.0,13.4,1505.3,325.6,-0.7,1.8,2470.486,13.32,0.043,131.3
2020-11-07T09:55:03,42.805,6.029,-0.009,-0.026,-0.024,102.0,104.0,100.0,13.3,1505.3,324.9,-0.7,1.9,2470.477,13.32,0.027,199.1
2020-11-07T09:58:03,42.805,6.029,0.011,-0.039,-0.029,101.0,103.0,100.0,13.4,1505.3,324.7,-0.7,1.9,2470.519,13.32,0.04,164.3
2020-11-07T10:04:03,42.805,6.029,0.017,-0.032,-0.023,102.0,103.0,100.0,13.4,1505.2,327.2,-0.7,1.8,2470.554,13.3,0.036,152.0
2020-11-07T10:07:03,42.805,6.029,0.04,-0.03,-0.005,102.0,102.0,100.0,13.4,1505.3,326.2,-0.7,1.8,2470.548,13.31,0.05,126.9